Starlink 4374

operational
NORAD ID: 53652 Int'l Des: 2022-105 Owner: SPXS Country: US Constellation: starlink
LEOCIRCULARRETROGRADESSO

Starlink 4374について

説明を読み込み中...

リアルタイム位置

3D地球を読み込み中...

次回通過

高度履歴

Altitude vs Time

uPlot chart will show altitude changes over time

軌道要素

1 53652U 22105E 25353.92133678 -.00000082 00000-0 -18405-5 0 9993
2 53652 97.6017 232.1123 0002934 80.0872 280.0683 15.01258449181264
Epoch: Dec 19, 2025 • Age: 18 hours

現在のステータス

高度 565.6 km
速度 7.58 km/s
衛星直下点 6.90°N, 77.13°E
打ち上げ日 Aug 31, 2022
運用期間 3.3 years
タイプ internet

技術仕様

分類 Payload
質量 300.00 kg
乾燥質量 290.00 kg
総質量 300.00 kg
長さ 0.20 m
直径 2.80 m
スパン 9.00 m
形状 Box + pan
製造者 SPXS
バスタイプ Starlink
フェーズステータス In Orbit
所有者/国 SPXS/US

大規模コンステレーション

Loading constellations...